Newcastle Nobbys Observation History
Time Wind Speed Temp Pressure Rel. Hum Rain
14/11:00am W 20-25 kts 19.3°c n/a 46% 0.0mm
14/10:30am W 19-25 kts 18.9°c n/a 49% 0.0mm
14/10:00am W 16-21 kts 17.7°c n/a 57% 0.0mm
14/09:30am WNW 16-21 kts 16.8°c n/a 60% 0.0mm
14/09:00am WNW 20-24 kts 15.9°c n/a 63% 0.0mm
14/08:30am WNW 16-22 kts 15.4°c n/a 66% 0.0mm
14/08:00am WNW 15-20 kts 14.4°c n/a 70% 0.0mm
14/07:30am WNW 12-17 kts 13.8°c n/a 72% 0.0mm
14/07:00am WNW 16-22 kts 13.7°c n/a 73% 0.0mm
14/06:30am WNW 19-27 kts 13.7°c n/a 72% 0.0mm
14/06:23am WNW 17-27 kts 13.7°c n/a 72% 0.0mm
14/06:00am WNW 11-15 kts 13.4°c n/a 74% 0.0mm
14/05:30am WNW 12-16 kts 13.5°c n/a 74% 0.0mm
14/05:00am WNW 11-15 kts 13.6°c n/a 74% 0.0mm
14/04:30am NW 14-17 kts 13.9°c n/a 74% 0.0mm
14/04:00am WNW 13-16 kts 13.8°c n/a 74% 0.0mm
14/03:30am NW 13-17 kts 13.9°c n/a 74% 0.0mm
14/03:00am NW 12-15 kts 14.4°c n/a 75% 0.0mm
14/02:30am NW 10-14 kts 14.5°c n/a 75% 0.0mm
14/02:00am NW 8-11 kts 14.7°c n/a 76% 0.0mm
14/01:30am NNW 7-9 kts 15.3°c n/a 74% 0.0mm
14/01:00am NW 5-7 kts 15.4°c n/a 71% 0.0mm
14/12:30am WNW 5-7 kts 15.5°c n/a 69% 0.0mm
14/12:00am WNW 7-9 kts 15.7°c n/a 70% 0.0mm
Time Wind Speed Temp Pressure Rel. Hum Rain
13/11:30pm WNW 9-13 kts 15.9°c n/a 70% 0.0mm
13/11:00pm WNW 11-14 kts 16.1°c n/a 70% 0.0mm
13/10:30pm NW 10-12 kts 16.4°c n/a 69% 0.0mm
13/10:00pm WNW 11-14 kts 16.8°c n/a 66% 0.0mm
13/09:30pm WNW 7-10 kts 17.0°c n/a 67% 0.0mm
13/09:00pm WNW 10-13 kts 17.4°c n/a 65% 0.0mm
13/08:30pm WNW 8-11 kts 17.6°c n/a 65% 0.0mm
13/08:00pm WNW 10-12 kts 18.0°c n/a 65% 0.0mm
13/07:30pm WNW 8-10 kts 18.1°c n/a 71% 0.0mm
13/07:00pm NW 7-10 kts 18.6°c n/a 71% 0.0mm
13/06:30pm NW 5-7 kts 18.8°c n/a 71% 0.0mm
13/06:00pm NW 8-10 kts 19.3°c n/a 71% 0.0mm
13/05:30pm NW 7-9 kts 19.8°c n/a 67% 0.0mm
13/05:00pm WNW 9-12 kts 20.4°c n/a 64% 0.0mm
13/04:30pm WNW 11-15 kts 21.1°c n/a 64% 0.0mm
13/04:00pm NNW 5-11 kts 21.6°c n/a 66% 0.0mm
13/03:30pm E 6-7 kts 20.9°c n/a 75% 0.0mm
13/03:00pm SE 6-9 kts 20.0°c n/a 77% 0.0mm
13/02:30pm SE 4-6 kts 20.3°c n/a 76% 0.0mm
13/02:00pm SE 7-10 kts 21.1°c n/a 75% 0.0mm
13/01:30pm SW 3-7 kts 20.6°c n/a 67% 0.0mm
13/01:00pm WSW 5-8 kts 21.9°c n/a 62% 0.0mm
13/12:30pm W 7-9 kts 22.8°c n/a 59% 0.0mm
13/12:00pm W 7-11 kts 23.1°c n/a 63% 0.0mm
13/11:30am W 9-12 kts 21.9°c n/a 66% 0.0mm
13/11:00am W 5-9 kts 21.1°c n/a 71% 0.0mm
13/10:30am W 8-11 kts 21.1°c n/a 71% 0.0mm
13/10:00am W 8-11 kts 20.4°c n/a 76% 0.0mm
13/09:30am W 9-11 kts 19.5°c n/a 85% 0.0mm
13/09:00am W 8-10 kts 17.2°c n/a 95% 0.0mm
13/08:30am W 7-9 kts 16.7°c n/a 100% 0.0mm
13/08:00am W 8-9 kts 16.1°c n/a 100% 0.0mm
13/07:30am WNW 7-8 kts 15.7°c n/a n/a 0.0mm
13/07:00am WNW 7-9 kts 15.2°c n/a n/a 0.0mm
13/06:30am WNW 4-5 kts 15.3°c n/a n/a 0.0mm
13/06:00am WNW 4-5 kts 15.3°c n/a n/a 0.0mm
13/05:30am WNW 5-7 kts 15.1°c n/a n/a 0.0mm
13/05:00am NW 5-6 kts 15.5°c n/a 100% 0.0mm
13/04:30am NW 4-5 kts 15.8°c n/a 100% 0.0mm
13/04:00am W 5-6 kts 15.7°c n/a 100% 0.0mm
13/03:30am W 3-5 kts 15.8°c n/a 100% 0.0mm
13/03:00am WNW 5-6 kts 16.1°c n/a 100% 0.0mm
13/02:30am SW 7-12 kts 16.4°c n/a 100% 0.0mm
13/02:00am SW 9-15 kts 16.7°c n/a 99% 0.0mm
13/01:30am SW 5-8 kts 16.8°c n/a 97% 0.0mm
13/01:00am SW 9-13 kts 16.9°c n/a 99% 0.0mm
13/12:30am SW 7-10 kts 17.2°c n/a 100% 0.0mm
13/12:00am SW 7-11 kts 17.4°c n/a 100% 0.0mm
Time Wind Speed Temp Pressure Rel. Hum Rain
12/11:30pm SW 7-10 kts 17.4°c n/a 100% 0.0mm
12/11:00pm SW 5-10 kts 17.5°c n/a 100% 0.0mm
12/10:30pm SSW 6-9 kts 17.6°c n/a 99% 0.0mm
12/10:00pm SW 4-6 kts 17.9°c n/a 96% 0.0mm
12/09:30pm SSW 8-10 kts 18.7°c n/a 94% 0.0mm
12/09:00pm S 10-13 kts 18.1°c n/a 100% 0.0mm
12/08:30pm S 10-11 kts 18.3°c n/a 100% 0.0mm
12/08:00pm S 8-13 kts 18.6°c n/a 96% 0.0mm
12/07:30pm S 9-11 kts 19.1°c n/a 96% 0.0mm
12/07:00pm SSE 13-16 kts 19.2°c n/a 89% 0.0mm
12/06:30pm S 10-13 kts 19.9°c n/a 84% 0.0mm
12/06:00pm SSE 9-10 kts 19.9°c n/a 87% 0.0mm
12/05:30pm SSE 8-9 kts 19.9°c n/a 82% 0.0mm
12/05:00pm SSW 6-9 kts 19.8°c n/a 86% 0.0mm
12/04:30pm SSE 10-11 kts 19.8°c n/a 86% 0.0mm
12/04:00pm SSE 11-13 kts 20.0°c n/a 84% 0.0mm
12/03:30pm S 13-15 kts 19.7°c n/a 91% 0.0mm
12/03:00pm S 11-14 kts 19.6°c n/a 90% 0.0mm
12/02:30pm S 11-14 kts 19.7°c n/a 90% 0.0mm
12/02:00pm S 13-17 kts 19.7°c n/a 89% 0.0mm
12/01:30pm S 13-19 kts 19.5°c n/a 88% 0.0mm
12/01:00pm S 8-11 kts 19.6°c n/a 88% 0.0mm
12/12:30pm SSW 7-10 kts 20.0°c n/a 88% 0.0mm
12/12:00pm SW 5-8 kts 19.0°c n/a 90% 0.0mm
12/11:30am S 7-12 kts 18.6°c n/a 88% 0.0mm
12/11:00am S 6-8 kts 18.8°c n/a 85% 0.0mm
12/10:30am WSW 3-5 kts 19.0°c n/a 83% 0.0mm
12/10:00am NW 4-6 kts 18.3°c n/a 86% 0.0mm
12/09:30am W 6-7 kts 17.6°c n/a 86% 0.0mm
12/09:00am WNW 6-7 kts 15.9°c n/a 93% 0.0mm
12/08:30am WNW 6-8 kts 14.7°c n/a 94% 0.0mm
12/08:00am WNW 6-7 kts 14.1°c n/a 96% 0.0mm
12/07:30am NW 7-8 kts 13.6°c n/a 99% 0.0mm
12/07:00am NW 5-7 kts 14.2°c n/a 100% 0.0mm
12/06:30am W 6-8 kts 13.5°c n/a 99% 0.0mm
12/06:00am NW 8-10 kts 13.8°c n/a 100% 0.0mm
12/05:30am NW 5-6 kts 14.0°c n/a 100% 0.0mm
12/05:00am WNW 4-6 kts 13.9°c n/a 100% 0.0mm
12/04:30am NW 7-9 kts 14.4°c n/a 100% 0.0mm
12/04:00am W 7-8 kts 14.6°c n/a 99% 0.0mm
12/03:30am WNW 6-9 kts 14.5°c n/a 98% 0.0mm
12/03:00am NW 6-8 kts 14.8°c n/a 98% 0.0mm
12/02:30am WNW 6-8 kts 15.3°c n/a 99% 0.0mm
12/02:00am WNW 7-8 kts 15.4°c n/a 99% 0.0mm
12/01:30am WNW 7-9 kts 15.9°c n/a 98% 0.0mm
12/01:00am NW 5-6 kts 15.9°c n/a 98% 0.0mm
12/12:30am WNW 5-6 kts 16.2°c n/a 99% 0.0mm
12/12:00am W 5-7 kts 16.1°c n/a 100% 0.0mm